Wetbulb
68.42 71.77 72.80 74.46 73.93 73.54 73.53 73.15 72.95 73.01 73.55 73.22 73.23 72.85 72.61 72.48 72.34 72.38 72.40 72.55 71.77 70.91 70.52 69.88 69.07 68.71 68.74 69.37 69.82 69.26 69.69 70.70 70.80 71.20 71.33 71.33 71.33 71.76 71.75 71.43 71.93 72.16 72.76
69.12 71.55 72.04 73.95 74.05 73.66 73.33 73.30 73.30 73.21 73.29 72.87 72.71 72.79 72.88 72.87 72.91 72.37 72.26 72.36 71.15 70.41 70.22 69.36 68.53 67.53 66.99 66.79 67.12 67.34 67.97 69.00 69.85 69.76 70.18 71.05 71.34 70.66 70.78 70.77 71.18 71.46 71.71
68.56 71.19 73.03 73.00 73.96 74.06 73.67 73.30 73.12 73.20 72.47 72.35 72.09 71.45 71.26 71.25 71.28 72.21 71.88 71.66 71.18 70.40 69.88 68.72 67.53 66.49 65.57 65.11 65.30 65.82 66.83 68.02 68.32 69.17 69.73 70.41 70.64 70.76 70.37 69.91 70.04 70.14 70.34
68.70 71.10 72.94 71.91 73.52 73.68 73.63 73.26 73.09 72.93 72.20 71.54 71.12 70.86 70.68 70.89 72.10 72.39 71.79 71.56 71.24 70.47 69.89 68.78 66.95 65.35 63.79 63.33 64.02 64.45 65.98 68.06 68.05 68.11 70.02 69.73 70.28 70.50 70.06 69.79 69.65 69.32 69.25
68.91 70.92 72.51 71.60 73.38 73.66 73.61 73.18 72.87 72.89 72.54 71.62 71.30 71.18 71.22 70.80 71.10 71.89 71.47 71.30 70.66 69.91 69.25 68.12 66.48 64.54 62.61 62.18 62.15 63.29 65.92 67.18 67.17 69.03 69.04 69.46 70.10 69.72 69.44 68.90 69.13 68.82 68.83
68.95 70.35 70.83 71.68 73.40 73.57 73.39 72.96 72.37 72.19 72.05 71.74 71.41 71.39 71.69 71.41 70.83 71.27 71.22 70.81 69.89 68.11 67.75 66.83 65.85 63.49 61.14 61.14 61.71 63.44 65.43 65.61 66.54 68.18 68.32 68.35 70.12 69.64 69.78 69.37 68.75 68.69 68.78
68.33 70.04 71.43 70.99 72.58 73.15 73.24 72.89 72.88 72.33 72.04 71.93 71.47 71.27 71.93 71.27 71.26 71.09 70.52 69.86 68.92 67.67 66.00 65.56 64.34 62.53 59.73 60.49 61.08 62.60 63.52 63.03 65.30 66.67 67.48 67.67 68.20 68.15 68.14 67.75 67.79 67.34 67.12
68.17 69.43 70.27 68.38 69.77 71.55 72.37 72.42 72.35 72.48 72.69 72.56 71.98 71.45 71.09 70.94 70.67 70.37 69.55 68.54 68.19 67.23 66.13 65.30 63.41 61.58 58.53 59.04 60.05 61.33 60.69 60.32 62.55 64.26 65.81 66.61 65.62 66.19 66.40 66.30 66.28 65.89 65.37
65.28 68.46 69.85 70.69 70.00 66.76 69.52 70.17 70.63 71.28 71.48 71.51 71.60 71.43 71.10 70.44 70.24 69.04 67.90 68.12 67.62 66.85 65.77 64.66 62.65 60.86 57.76 57.63 57.79 58.11 57.34 57.16 61.00 62.35 62.31 63.96 63.72 63.77 63.28 63.47 64.46 65.00 64.97
55.56 57.43 59.24 66.35 68.94 69.27 71.72 65.97 66.39 68.86 69.65 69.92 69.69 69.03 68.16 67.90 68.33 66.63 65.78 67.25 67.29 66.34 65.22 63.97 61.91 59.96 56.96 55.81 54.91 53.46 53.22 55.82 57.41 58.40 60.32 60.56 61.14 62.05 61.49 61.65 61.76 62.41 63.07
53.02 53.60 54.79 56.53 61.10 64.16 68.18 68.13 65.74 65.07 66.55 67.13 67.55 65.81 65.83 70.49 70.20 67.69 64.78 65.88 66.90 66.39 65.23 63.57 61.71 58.72 53.75 50.20 51.22 50.30 51.97 53.51 53.79 54.41 55.02 55.94 59.28 60.40 60.05 60.45 60.43 60.80 61.43
50.65 51.59 52.68 54.09 55.68 59.72 65.55 68.27 69.19 69.59 70.99 71.01 70.81 70.66 70.40 69.68 69.49 67.68 62.95 63.19 64.43 64.62 65.21 63.53 61.09 56.73 55.81 53.60 51.64 50.80 51.74 51.43 52.29 52.37 52.61 54.30 57.00 59.04 60.37 59.87 59.91 60.13 60.71
49.83 51.97 52.46 53.44 54.32 55.39 63.48 68.38 69.07 69.42 69.65 70.60 70.46 70.13 69.74 67.64 67.07 65.81 64.81 64.36 65.12 61.66 64.17 62.52 60.20 62.31 58.84 55.96 52.42 51.23 50.87 51.10 51.81 52.05 51.56 51.35 55.28 58.20 59.78 60.82 60.30 60.44 61.16
49.78 51.28 53.03 53.49 55.28 56.58 57.16 66.80 67.82 67.98 68.92 69.08 69.99 68.85 69.60 68.66 66.38 65.25 64.57 64.22 63.47 63.52 62.23 60.86 59.03 58.73 58.85 55.19 53.12 51.73 50.97 50.90 50.79 50.96 52.07 49.00 52.39 56.46 59.16 60.85 61.40 60.99 61.04
49.18 51.31 52.74 54.49 56.70 58.18 57.32 65.80 67.19 67.11 67.10 66.72 67.25 66.40 66.27 67.18 66.63 67.31 65.41 63.58 63.54 63.05 63.12 60.18 57.58 55.54 56.64 56.22 53.65 51.75 50.39 50.20 49.99 50.49 51.16 49.11 50.18 53.66 56.78 60.04 61.62 61.70 61.28
48.50 50.33 52.78 53.91 55.38 57.58 59.29 65.01 65.31 64.82 63.35 62.74 61.25 62.57 62.76 63.87 63.75 63.62 63.03 63.53 62.39 61.52 60.48 58.68 56.13 54.84 52.61 51.23 54.43 51.98 51.12 50.91 50.14 49.92 50.10 51.02 48.01 50.54 52.78 56.41 59.85 61.89 62.93
47.96 50.03 48.39 50.24 57.20 60.36 61.33 58.88 56.79 56.75 56.78 56.11 56.69 57.91 58.48 60.52 61.31 60.44 59.23 58.56 58.40 58.50 56.70 55.78 54.13 53.55 52.56 53.53 51.88 50.92 52.30 51.56 51.08 49.98 49.61 49.53 50.35 50.48 50.07 53.00 55.18 57.81 58.99
46.83 47.53 46.47 49.87 51.98 51.17 50.77 50.57 50.23 50.11 49.65 50.03 51.45 52.62 54.86 56.74 57.34 56.58 55.86 55.07 55.55 55.01 54.14 52.60 51.82 51.26 51.05 52.58 53.98 52.37 49.54 51.67 51.48 50.97 50.53 50.18 49.73 48.91 51.24 50.07 51.63 53.46 55.27
45.79 46.46 45.63 47.68 48.82 47.98 47.26 46.09 45.56 45.87 46.25 47.07 48.38 48.62 48.52 50.73 51.37 51.07 52.74 52.89 52.80 52.25 52.25 51.87 51.49 50.23 50.01 49.06 46.82 47.61 47.74 47.76 51.51 50.60 50.62 49.31 48.69 48.30 48.43 48.60 47.29 48.05 49.92
45.48 46.94 44.93 45.27 47.84 46.88 46.16 45.30 44.93 45.18 45.81 45.96 45.01 45.71 46.32 47.18 49.25 49.93 49.32 50.27 51.39 51.74 50.45 52.00 51.52 50.88 49.27 48.55 47.56 47.73 51.96 51.41 51.58 50.84 48.88 47.47 47.71 47.09 47.46 47.40 48.35 48.53 47.16
44.48 46.44 44.92 45.00 45.01 47.38 46.39 45.54 45.04 44.58 43.93 43.07 43.10 44.45 45.35 46.26 47.09 47.93 47.82 48.59 49.23 48.42 48.28 48.63 50.44 49.34 47.83 48.19 50.29 50.65 51.66 49.24 48.24 48.76 48.81 47.93 46.79 47.25 47.34 46.98 47.01 47.05 47.25
42.17 43.73 44.97 44.42 44.23 46.63 47.31 46.16 44.77 42.05 40.99 40.88 40.68 40.37 41.12 41.53 42.25 43.01 43.98 43.83 45.13 45.22 44.86 45.85 46.79 47.50 47.23 46.29 45.06 47.45 46.77 48.72 47.68 48.46 47.32 45.61 46.92 47.12 47.24 47.57 47.43 47.20 47.17
40.08 40.78 41.70 43.04 43.94 44.61 44.03 42.93 41.69 41.41 40.83 39.35 38.51 37.79 38.06 38.86 39.11 39.52 39.65 39.79 39.95 41.03 39.93 41.18 42.84 43.98 43.32 45.22 44.92 44.19 43.12 41.88 42.66 46.61 45.17 46.79 45.53 45.55 46.06 46.33 46.26 46.68 47.04
38.41 39.65 40.71 41.40 41.87 42.07 43.45 43.73 42.94 40.62 36.85 36.54 36.60 36.73 36.49 37.16 36.98 37.41 37.50 37.59 37.57 37.66 37.16 37.07 37.98 38.45 39.39 37.36 42.02 41.70 43.15 41.86 39.18 38.56 43.50 43.03 42.62 40.13 41.73 43.98 43.15 44.66 45.64
37.77 37.93 38.54 38.97 38.84 39.53 40.29 40.41 39.19 37.05 36.51 36.73 36.38 35.56 35.37 35.43 35.75 35.69 36.04 36.07 35.78 36.03 35.91 35.79 35.95 35.96 36.26 35.84 35.72 36.26 37.14 38.56 39.31 34.63 33.18 35.48 37.39 38.89 41.06 39.38 41.65 42.34 44.56
36.45 36.97 37.44 37.31 36.82 37.86 38.45 38.58 37.91 36.45 35.81 35.45 35.28 34.55 34.39 34.44 34.18 34.05 34.03 34.07 33.99 33.87 33.75 34.24 34.45 34.00 34.39 34.33 34.68 34.76 33.93 32.96 32.50 32.52 31.77 32.64 33.24 35.61 37.11 38.33 39.76 41.29 42.82
MSLP
1018.04 1018.10 1018.99 1019.16 1019.32 1019.59 1019.80 1020.03 1020.15 1020.25 1020.23 1020.36 1020.46 1020.57 1020.67 1020.68 1020.75 1020.77 1020.76 1020.68 1020.71 1020.80 1020.82 1020.92 1020.96 1020.96 1020.89 1020.85 1020.73 1020.60 1020.50 1020.43 1020.37 1020.27 1020.13 1020.03 1019.99 1019.97 1019.94 1019.81 1019.54 1019.28 1019.41
1017.81 1018.29 1018.97 1019.17 1019.39 1019.76 1019.96 1020.10 1020.29 1020.43 1020.52 1020.54 1020.64 1020.73 1020.80 1020.89 1020.92 1020.99 1020.99 1020.96 1020.93 1021.03 1021.08 1021.22 1021.26 1021.29 1021.21 1021.12 1021.10 1020.99 1020.87 1020.82 1020.74 1020.62 1020.53 1020.37 1020.39 1020.37 1020.32 1020.18 1020.07 1019.90 1019.83
1017.76 1018.29 1018.88 1019.21 1019.41 1019.73 1020.05 1020.24 1020.42 1020.55 1020.66 1020.75 1020.86 1020.95 1021.00 1021.06 1021.09 1021.09 1021.17 1021.16 1021.19 1021.19 1021.37 1021.60 1021.65 1021.64 1021.53 1021.55 1021.48 1021.34 1021.21 1021.07 1020.99 1020.93 1020.67 1020.01 1020.29 1020.65 1020.66 1020.60 1020.49 1020.44 1020.26
1018.01 1018.25 1018.55 1019.22 1019.49 1019.79 1020.04 1020.33 1020.48 1020.56 1020.66 1020.80 1020.92 1021.05 1021.14 1021.21 1021.22 1021.26 1021.29 1021.33 1021.37 1021.38 1021.43 1021.75 1021.94 1021.97 1021.92 1021.88 1021.77 1021.63 1021.53 1021.40 1021.23 1020.99 1020.32 1020.16 1020.19 1020.83 1020.84 1020.83 1020.82 1020.75 1020.46
1018.22 1018.46 1018.75 1019.40 1019.61 1019.88 1020.15 1020.37 1020.52 1020.63 1020.75 1020.85 1020.96 1021.07 1021.13 1021.23 1021.31 1021.36 1021.44 1021.52 1021.53 1021.56 1021.57 1021.88 1022.23 1022.22 1022.20 1022.11 1021.97 1021.86 1021.79 1021.78 1021.56 1020.89 1020.63 1020.60 1020.38 1021.09 1021.12 1021.07 1020.99 1020.94 1020.88
1018.36 1018.66 1019.09 1019.60 1019.77 1019.97 1020.24 1020.49 1020.72 1020.90 1020.99 1021.06 1021.16 1021.15 1021.17 1021.27 1021.40 1021.55 1021.63 1021.64 1021.65 1021.74 1021.96 1022.22 1022.46 1022.51 1022.46 1022.33 1022.17 1022.08 1022.01 1021.95 1021.54 1021.06 1020.95 1021.00 1020.82 1021.31 1021.25 1021.32 1021.36 1021.28 1021.25
1018.60 1018.86 1019.12 1019.65 1019.80 1019.97 1020.14 1020.17 1020.45 1020.79 1020.97 1021.12 1021.24 1021.34 1021.39 1021.54 1021.66 1021.68 1021.71 1021.75 1021.77 1021.75 1022.14 1022.41 1022.65 1022.71 1022.69 1022.58 1022.51 1022.41 1022.35 1022.27 1021.54 1021.41 1021.32 1021.18 1021.46 1021.61 1021.61 1021.65 1021.59 1021.56 1021.41
1019.03 1019.33 1019.40 1019.84 1019.98 1019.98 1020.09 1020.20 1020.29 1020.52 1020.81 1020.96 1021.17 1021.36 1021.54 1021.68 1021.84 1022.01 1022.11 1022.18 1022.18 1022.20 1022.40 1022.72 1022.98 1023.08 1022.99 1022.90 1022.86 1022.84 1022.67 1022.48 1021.84 1021.78 1021.84 1021.70 1022.15 1021.94 1021.87 1021.94 1021.88 1021.78 1021.70
1019.88 1019.74 1019.75 1019.74 1020.05 1020.31 1020.25 1020.33 1020.41 1020.52 1020.73 1020.92 1021.06 1021.27 1021.51 1021.73 1021.87 1022.04 1022.21 1022.29 1022.42 1022.54 1022.73 1022.95 1023.17 1023.27 1023.26 1023.23 1023.28 1023.18 1023.00 1022.84 1022.06 1022.18 1022.10 1021.98 1022.45 1022.17 1022.09 1022.05 1022.01 1021.97 1021.85
1020.48 1020.53 1020.54 1020.31 1020.25 1020.28 1020.14 1020.51 1020.59 1020.55 1020.69 1020.93 1021.16 1021.38 1021.56 1021.80 1022.00 1022.21 1022.35 1022.44 1022.54 1022.64 1022.81 1023.09 1023.29 1023.41 1023.52 1023.70 1023.74 1023.60 1023.35 1023.01 1022.56 1022.47 1022.36 1022.78 1022.79 1022.39 1022.27 1022.25 1022.14 1022.05 1021.93
1020.71 1020.80 1020.76 1020.63 1020.51 1020.49 1020.26 1020.25 1020.49 1020.67 1020.86 1020.92 1021.07 1021.29 1021.55 1021.38 1021.68 1021.99 1022.19 1022.51 1022.71 1022.85 1022.97 1023.16 1023.38 1023.59 1023.73 1023.80 1023.82 1023.77 1023.51 1023.10 1022.93 1022.90 1022.82 1023.36 1023.07 1022.75 1022.46 1022.41 1022.24 1022.19 1022.09
1021.14 1021.26 1021.28 1021.12 1020.86 1020.59 1020.21 1020.01 1020.11 1020.29 1020.31 1020.43 1020.47 1020.60 1020.84 1021.04 1021.42 1021.96 1022.48 1022.66 1022.88 1023.05 1023.14 1023.16 1023.40 1023.64 1023.71 1023.59 1023.51 1023.61 1023.34 1023.43 1023.23 1023.28 1023.25 1023.70 1023.35 1022.99 1022.65 1022.46 1022.38 1022.34 1022.18
1021.74 1021.50 1021.44 1021.29 1021.20 1020.94 1020.45 1020.36 1020.41 1020.47 1020.52 1020.30 1020.32 1020.36 1020.68 1021.17 1021.58 1021.96 1022.41 1022.79 1022.98 1023.18 1023.30 1023.42 1023.67 1023.35 1023.61 1023.71 1023.76 1023.73 1023.72 1023.58 1023.39 1023.38 1023.58 1023.90 1023.66 1023.31 1022.94 1022.62 1022.42 1022.38 1022.29
1021.92 1021.77 1021.56 1021.32 1020.97 1020.88 1020.83 1020.27 1020.45 1020.64 1020.66 1020.77 1020.78 1020.97 1020.94 1021.15 1021.72 1022.07 1022.29 1022.62 1022.80 1023.04 1023.33 1023.76 1023.95 1023.90 1023.71 1023.84 1023.96 1023.92 1023.94 1023.85 1023.73 1023.67 1023.58 1024.03 1023.85 1023.47 1023.14 1022.86 1022.56 1022.42 1022.39
1022.34 1022.05 1021.78 1021.40 1020.88 1020.53 1020.58 1020.19 1020.53 1020.76 1020.97 1021.22 1021.28 1021.60 1021.66 1021.58 1021.69 1021.96 1022.31 1022.63 1022.88 1023.14 1023.36 1023.72 1024.05 1024.32 1024.36 1024.32 1024.34 1024.27 1024.10 1024.03 1023.92 1023.76 1023.65 1023.93 1023.96 1023.75 1023.46 1023.10 1022.67 1022.35 1022.27
1023.00 1022.73 1022.40 1021.95 1021.36 1020.17 1019.56 1019.84 1020.60 1021.13 1021.51 1021.75 1022.02 1022.12 1022.24 1022.20 1022.26 1022.44 1022.67 1022.82 1023.09 1023.11 1023.38 1023.94 1024.30 1024.44 1024.64 1024.62 1024.23 1024.43 1024.50 1024.41 1024.24 1024.10 1023.80 1023.59 1023.86 1023.75 1023.53 1023.33 1023.15 1022.80 1022.48
1023.53 1023.39 1023.27 1022.94 1022.14 1021.29 1021.06 1021.19 1021.43 1021.67 1022.35 1022.94 1023.15 1023.10 1022.88 1022.65 1022.57 1022.79 1023.31 1023.62 1023.72 1023.80 1023.97 1024.08 1024.40 1024.65 1024.53 1024.47 1024.47 1024.33 1024.10 1024.02 1023.93 1023.91 1023.97 1023.92 1023.69 1023.70 1023.74 1023.56 1023.35 1023.14 1022.96
1023.91 1023.63 1023.61 1023.19 1022.71 1022.92 1023.12 1023.45 1023.39 1023.59 1023.68 1024.08 1024.17 1024.19 1023.88 1023.60 1023.74 1023.61 1023.78 1024.30 1024.44 1024.42 1024.35 1024.48 1024.67 1024.77 1024.84 1024.67 1024.52 1024.27 1024.37 1023.93 1023.79 1023.78 1023.58 1023.48 1023.64 1023.79 1023.68 1023.82 1023.75 1023.53 1023.20
1024.24 1024.09 1023.98 1023.76 1023.60 1023.56 1023.98 1024.43 1024.83 1024.76 1024.68 1024.88 1024.96 1025.07 1024.96 1024.76 1024.72 1024.60 1024.71 1024.75 1025.04 1025.03 1025.04 1025.11 1025.29 1024.96 1025.08 1024.96 1024.74 1024.59 1024.52 1024.39 1023.89 1023.76 1023.73 1023.76 1023.82 1023.77 1023.59 1023.62 1023.82 1023.73 1023.50
1024.63 1024.27 1024.30 1024.06 1023.94 1023.76 1023.52 1023.74 1024.69 1025.47 1025.88 1026.09 1026.04 1025.82 1025.64 1025.54 1025.40 1025.36 1025.59 1025.49 1025.29 1025.20 1025.19 1025.09 1025.18 1025.28 1025.21 1025.07 1024.69 1024.33 1023.90 1023.73 1023.74 1023.76 1023.86 1024.01 1023.92 1024.07 1023.98 1023.87 1023.61 1023.23 1023.37
1024.94 1024.50 1024.70 1024.87 1025.04 1025.11 1025.09 1024.98 1024.94 1025.05 1025.75 1026.41 1026.86 1026.73 1026.45 1026.19 1026.04 1025.77 1025.61 1025.98 1026.00 1025.93 1025.89 1025.58 1025.40 1025.19 1025.27 1025.17 1024.23 1023.75 1023.57 1023.88 1023.85 1023.78 1023.90 1023.99 1024.29 1024.40 1024.33 1024.07 1023.82 1023.70 1023.32
1025.44 1025.46 1025.59 1025.67 1025.52 1025.31 1025.23 1025.46 1025.70 1025.91 1026.61 1026.94 1027.48 1027.60 1027.41 1027.36 1027.29 1027.01 1026.77 1026.98 1026.69 1026.64 1026.78 1026.58 1026.29 1026.08 1026.17 1026.04 1025.44 1024.32 1023.62 1023.53 1023.92 1023.92 1024.12 1024.34 1024.33 1024.31 1024.27 1024.20 1024.03 1023.72 1023.46
1025.06 1024.86 1024.76 1025.12 1025.38 1025.73 1026.19 1026.57 1026.99 1027.09 1027.02 1027.56 1027.84 1028.07 1028.35 1028.28 1028.21 1028.21 1028.11 1027.96 1028.04 1027.82 1027.85 1027.79 1027.57 1027.24 1026.81 1026.78 1026.63 1026.12 1025.07 1024.84 1024.74 1024.14 1024.44 1024.46 1024.53 1024.51 1024.32 1024.14 1023.97 1023.76 1023.41
1026.10 1025.89 1025.83 1025.69 1025.35 1025.84 1025.90 1026.00 1026.06 1027.28 1028.17 1028.64 1028.80 1028.98 1029.20 1029.24 1029.20 1029.18 1029.23 1029.10 1029.01 1029.00 1028.83 1028.93 1028.75 1028.39 1028.18 1027.86 1027.50 1027.52 1027.44 1027.23 1026.21 1024.97 1024.76 1024.95 1025.13 1025.14 1024.78 1024.36 1024.01 1023.68 1023.37
1026.21 1026.36 1026.43 1026.29 1026.38 1026.34 1026.10 1026.26 1026.73 1027.11 1028.60 1029.20 1029.42 1029.39 1029.56 1029.88 1030.01 1029.96 1029.78 1029.99 1029.97 1029.77 1029.95 1029.68 1029.46 1029.37 1029.06 1028.96 1029.00 1028.70 1028.14 1027.65 1027.50 1027.13 1025.55 1025.25 1025.48 1025.24 1025.03 1024.98 1024.41 1023.75 1023.36
1026.44 1026.26 1026.43 1026.36 1026.69 1026.81 1026.76 1026.97 1027.70 1028.02 1028.43 1029.13 1029.76 1029.72 1030.00 1030.38 1030.55 1030.74 1030.63 1030.78 1030.88 1030.78 1030.88 1030.69 1030.40 1030.32 1030.10 1029.88 1029.74 1029.54 1029.40 1029.05 1028.46 1028.23 1027.32 1026.50 1025.83 1025.17 1025.34 1024.82 1024.45 1023.79 1023.49
Wind_Speed
6 10 7 10 13 11 12 11 11 10 10 11 11 11 10 10 10 9 7 13 14 14 14 14 13 13 13 12 12 13 12 12 12 13 13 13 13 13 13 13 11 13 13
4 10 8 10 10 11 10 10 10 11 10 11 11 10 9 9 9 9 10 11 13 14 14 14 13 13 12 11 10 10 10 9 10 9 6 9 10 11 12 13 13 13 14
8 12 11 9 10 11 11 9 9 9 10 10 10 9 9 8 7 7 10 10 11 13 15 14 13 13 13 12 10 9 9 9 8 6 3 5 9 9 11 11 12 12 13
7 12 13 10 10 9 11 10 9 9 9 9 9 8 8 8 8 10 9 9 11 12 14 13 13 12 12 11 10 9 9 8 7 3 1 5 6 8 9 9 10 10 11
7 10 10 9 9 10 10 10 9 9 9 9 9 8 7 7 7 7 7 9 10 12 13 13 12 13 12 11 10 8 8 7 4 2 5 6 4 7 7 6 9 10 11
6 8 9 8 8 9 10 10 8 8 8 8 8 8 8 8 8 7 7 7 12 13 14 11 11 11 11 11 10 9 8 7 6 4 5 5 10 9 9 7 5 10 9
3 5 8 8 7 8 8 10 12 9 8 7 6 6 8 8 7 7 7 6 5 13 11 9 9 10 11 11 10 9 9 7 5 5 5 5 8 9 9 9 7 8 9
5 2 3 5 4 7 8 8 10 12 10 9 8 6 5 8 7 6 5 6 10 10 9 9 9 9 9 10 10 10 9 7 3 5 4 4 9 7 7 7 7 6 6
9 6 3 3 6 5 4 6 7 9 10 8 7 6 6 7 7 6 4 6 8 9 9 10 9 9 10 10 9 9 8 8 4 4 4 4 10 7 7 6 6 6 6
8 7 6 5 4 5 7 6 6 6 6 6 5 5 7 6 6 6 5 6 7 9 9 10 9 8 8 9 9 9 6 1 5 4 4 6 9 7 6 6 6 5 5
6 7 6 5 2 4 5 4 5 5 4 6 8 8 7 7 8 9 7 7 6 8 10 10 9 7 5 5 7 7 6 4 4 4 3 10 9 8 6 5 6 5 4
9 9 8 8 7 5 4 6 6 4 7 7 8 9 7 5 3 3 5 8 7 6 8 10 10 9 2 2 2 1 3 4 3 3 4 10 10 9 8 6 5 5 4
8 6 7 7 6 6 5 4 2 1 2 5 7 5 5 4 3 3 4 3 3 5 3 5 3 1 4 2 3 3 3 3 3 3 4 8 10 10 10 9 6 5 3
8 9 8 7 5 4 4 4 3 1 1 1 2 4 1 3 3 3 4 4 3 3 3 1 0 1 2 3 2 2 2 3 3 3 3 7 9 10 10 11 9 5 4
8 9 9 8 6 2 3 4 3 3 3 5 7 8 5 3 1 2 2 3 3 3 3 2 2 2 4 5 4 5 4 3 4 3 3 3 7 9 11 11 9 8 6
10 12 11 10 7 1 7 7 5 6 7 7 7 6 6 3 3 3 1 0 1 2 4 3 2 1 2 2 3 4 5 5 5 5 4 4 4 7 7 9 10 11 12
9 11 12 12 12 8 9 9 8 8 9 8 7 10 9 7 7 7 6 5 4 4 4 3 3 2 1 1 2 2 3 3 3 4 4 5 6 3 7 9 8 8 9
7 8 8 8 12 14 14 10 9 10 9 9 8 8 13 12 11 9 7 6 5 5 3 3 3 2 2 3 4 4 4 5 5 5 3 2 3 5 5 9 12 12 11
6 7 8 10 11 12 13 11 11 12 10 8 9 9 12 12 12 9 7 7 6 6 6 4 4 3 2 3 3 3 3 4 5 4 5 4 5 4 4 6 8 10 10
6 7 7 7 9 11 10 10 9 8 10 9 9 9 11 9 11 9 7 8 7 6 6 5 6 5 5 6 5 5 4 3 2 3 5 4 5 5 6 7 6 5 8
7 8 8 8 7 5 5 7 8 10 9 9 9 12 12 11 11 10 8 8 9 9 9 9 5 7 6 9 4 4 3 4 4 4 4 5 8 8 8 7 5 6 6
9 10 9 9 8 6 5 7 6 8 9 9 9 12 13 14 13 11 11 10 11 9 11 11 10 5 6 9 6 4 3 2 4 7 4 5 8 6 8 9 9 8 7
8 8 10 10 10 10 10 9 9 9 8 9 9 9 12 14 14 14 14 12 12 10 10 11 11 12 7 6 12 6 4 4 9 2 6 6 9 10 11 10 11 11 10
7 7 7 7 10 8 7 7 10 9 9 8 8 9 10 13 13 13 13 12 12 9 10 10 9 10 9 9 4 7 6 5 5 6 3 8 9 12 12 9 11 12 11
6 7 8 10 9 9 11 12 10 14 9 8 8 11 12 11 12 12 12 11 11 8 10 11 10 10 8 7 6 5 5 4 4 6 9 10 9 7 6 11 10 10 10
6 8 8 11 11 10 10 12 12 13 12 9 8 8 7 7 8 10 10 10 10 9 9 8 8 9 8 7 5 5 5 4 6 6 9 12 13 8 10 8 9 9 9
Wind_Direction
184 164 181 156 147 143 134 124 115 109 107 108 108 108 108 110 104 90 80 93 82 77 70 64 61 59 58 55 48 42 46 51 54 55 58 58 59 57 53 43 40 60 50
147 171 167 152 148 139 136 129 127 126 126 121 115 108 99 89 93 86 93 84 82 77 68 60 54 52 50 49 50 50 49 54 56 52 45 96 62 58 56 52 40 48 50
163 167 176 159 141 142 143 132 132 126 126 122 116 111 103 93 82 94 95 85 88 84 74 55 51 45 39 33 35 41 49 57 58 51 333 62 75 62 59 56 56 54 50
171 169 175 163 158 151 140 142 140 137 131 127 121 116 111 103 96 106 93 89 87 85 77 53 42 41 38 35 31 30 37 45 49 337 44 42 70 75 66 66 64 56 55
156 177 171 167 166 156 149 152 152 148 145 140 136 132 123 118 108 102 102 116 87 66 57 62 35 32 30 33 36 40 46 44 32 298 52 34 72 69 63 54 96 82 63
155 182 149 179 171 167 162 165 161 158 153 150 150 147 139 131 125 124 130 125 109 82 63 55 37 31 29 31 35 44 48 37 303 62 53 62 52 57 56 46 47 81 74
132 164 181 187 189 181 191 187 162 170 169 166 164 163 158 136 129 123 111 93 48 90 89 68 46 35 31 34 38 44 46 34 24 50 58 44 49 39 37 33 46 58 59
73 94 183 195 230 212 193 210 185 174 179 185 176 183 172 147 135 120 102 67 67 86 90 79 62 43 41 44 47 46 42 8 73 57 40 47 13 28 31 22 21 29 43
42 42 27 258 217 268 256 222 231 191 190 203 192 171 177 164 146 128 101 90 81 82 82 83 66 45 35 36 43 52 49 21 35 46 42 41 1 23 26 28 22 16 25
50 41 25 7 345 252 240 224 279 230 193 189 199 189 183 173 153 132 128 94 99 103 97 102 86 73 56 42 31 29 27 21 42 35 37 27 356 3 16 15 14 10 8
38 28 14 1 346 338 259 266 255 252 297 211 208 205 191 210 190 173 128 115 106 112 117 115 106 92 86 82 50 26 330 23 16 21 16 5 356 350 351 356 1 355 352
8 2 359 346 333 286 237 217 212 225 227 234 219 215 214 202 168 136 129 121 122 129 142 137 134 126 149 31 64 126 33 14 9 8 28 1 355 348 345 339 341 336 347
345 351 353 343 331 311 263 243 223 220 237 238 241 242 205 121 128 135 139 152 152 159 161 143 148 333 79 31 33 19 14 354 359 0 38 3 356 350 346 338 333 337 1
346 348 345 344 331 319 288 219 191 204 191 251 12 44 43 145 158 160 171 164 160 172 157 167 348 8 102 99 39 29 19 354 353 345 27 12 354 353 352 347 330 325 318
351 349 351 337 334 318 234 179 140 109 56 46 50 40 25 25 36 195 170 170 188 158 187 162 85 62 1 4 5 350 354 351 341 330 320 37 355 355 355 353 343 322 315
353 357 352 354 337 158 153 131 104 78 71 65 57 52 45 49 49 55 88 145 67 52 48 56 79 79 62 11 5 6 347 335 331 327 327 326 342 343 349 354 355 353 348
1 2 6 358 1 42 63 62 65 77 72 54 44 43 44 47 71 76 52 37 32 50 65 77 70 55 109 49 345 315 292 274 283 302 322 327 331 308 340 341 343 343 344
12 27 28 31 54 53 54 49 53 52 55 53 43 42 45 50 51 55 60 48 48 51 70 67 60 66 354 351 340 334 310 294 287 291 278 289 329 332 334 0 344 340 333
25 34 40 50 64 77 71 64 57 59 61 59 57 49 46 49 54 59 48 56 40 50 42 33 43 52 33 354 314 299 287 283 304 318 321 328 337 320 323 334 335 325 336
46 65 65 78 91 100 107 108 89 67 61 53 54 52 56 57 60 69 63 59 58 61 54 59 61 60 29 351 313 294 283 272 304 354 2 356 18 354 341 334 328 331 331
58 72 65 70 53 78 60 79 73 80 79 68 57 52 55 54 57 62 69 58 57 51 46 34 36 41 34 357 323 335 334 47 50 43 16 24 33 11 359 356 350 340 327
64 60 57 57 61 70 86 92 86 98 83 83 73 60 56 57 51 55 56 51 47 54 43 37 34 37 34 22 352 299 352 161 35 353 40 33 12 2 353 343 334 331 326
101 110 112 105 97 92 93 96 98 97 91 79 67 65 57 57 57 57 57 58 53 50 49 40 32 30 31 38 34 8 336 348 332 54 17 1 1 349 337 338 333 326 322
77 91 92 94 102 98 107 107 110 102 95 88 85 82 70 61 61 60 59 59 60 56 56 47 41 43 34 32 31 26 29 350 338 320 340 348 352 335 337 337 330 328 324
109 97 94 97 95 100 108 112 113 113 112 108 100 93 83 72 63 60 60 58 58 55 52 49 44 42 46 43 32 3 3 359 20 311 313 324 325 339 325 325 316 321 328
129 114 111 110 103 105 109 107 111 116 124 122 115 102 89 78 71 64 66 62 57 54 45 43 48 45 36 39 24 24 13 350 342 329 313 316 317 320 321 301 315 311 324